Location: Rancho Del Sol Observatory
(38.7214°N, 120.6350°W)
Time: 11:32:32
(UTC-08:00)

Courier 1B - Pass Details

Date: 22 January 2020
Orbit: 962 x 1209 km, 28.3° (Epoch: 19 February)

Event Time Altitude Azimuth Distance (km) Brightness Sun altitude
Exits shadow 03:23:14 19° 129° (SE) 2,454 9.8 -45.2°
Drops below altitude 10° 03:26:10 10° 109° (ESE) 3,103 10.6 -44.6°
Sets 03:29:38 0° 97° (E) 4,090 11.5 -43.9°
